Air Resources Laboratory banner image
Air Resources Laboratory web site National Oceanic and Atmospheric Administration (NOAA)

nm roundup


Office: ABQ

ASUS45 KABQ 162301
RWRNM
NEW MEXICO REGIONAL WEATHER ROUNDUP
NATIONAL WEATHER SERVICE ALBUQUERQUE NM
500 PM MDT TUE OCT 16 2018

NOTE: "FAIR" MEANS FEW OR NO CLOUDS BELOW 12,000 FEET AGL WITH NO
       SIGNIFICANT WEATHER OR OBSTRUCTIONS TO VISION.

      THIS PRODUCT IS RELEASED AS TWO VERSIONS.  ONE VERSION NEAR
      THE TOP OF THE HOUR CONTAINING PRELIMINARY DATA FROM ALBUQUERQUE
      AND OTHER STATIONS.  A FINAL VERSION WITH ADDITIONAL DATA IS
      ISSUED ABOUT 10 MINUTES AFTER THE HOUR.

NMZ501-503-504-510>518-170000-
NORTHWEST PLATEAU/NORTHCENTRAL MOUNTAINS

CITY           SKY/WX    TMP DP  RH WIND       PRES   REMARKS
FARMINGTON     FAIR      59  31  34 S17G26    30.14S
SANTA FE       CLOUDY    51  33  50 SE9       30.24R
TAOS           CLOUDY    49  20  31 SE23G30   30.30S

$$
NMZ402-403-502-505>509-170000-
WESTCENTRAL MOUNTAINS/SOUTHWEST MOUNTAINS

CITY           SKY/WX    TMP DP  RH WIND       PRES   REMARKS
GALLUP         CLOUDY    38  37  97 W5        30.21S WCI  34
GRANTS         RAIN      37  33  89 S10       30.27R WCI  29
SILVER CITY    CLOUDY    42  36  79 S9        30.22R

$$
NMZ407-409-411-412-170000-
SOUTHERN DESERTS

CITY           SKY/WX    TMP DP  RH WIND       PRES   REMARKS
DEMING         CLOUDY    46  36  68 NE14      30.22S
LAS CRUCES     CLOUDY    48  33  55 N6        30.24R
ALAMOGORDO     CLOUDY    48  32  53 NW7       30.26R
T OR C         LGT RAIN  44  35  70 N8        30.26R

$$
NMZ519>523-170000-
CENTRAL VALLEYS/CENTRAL HIGHLANDS

CITY           SKY/WX    TMP DP  RH WIND       PRES   REMARKS
ALBUQUERQUE    CLOUDY    49  25  39 E26G35    30.25R
DOUBLE EAGLE   LGT RAIN  46  27  46 SE20G26   30.26R
MORIARTY ARPT  LGT SNOW  42  29  61 SE16      30.34R
CLINES CORNERS CLOUDY    38  25  59 E25G39    30.30R WCI  27
BELEN          DRIZZLE   44  33  65 W9        30.27S
SOCORRO        CLOUDY    45  29  54 NW7       30.28S

$$
NMZ524>526-539-540-170000-
SOUTHCENTRAL MOUNTAINS

CITY           SKY/WX    TMP DP  RH WIND       PRES   REMARKS
RUIDOSO        CLOUDY    32  28  86 SE8       30.34R FOG     WCI  25

$$
NMZ527>531-170000-
NORTHEAST HIGHLANDS/NORTHEAST PLAINS

CITY           SKY/WX    TMP DP  RH WIND       PRES   REMARKS
LAS VEGAS      CLOUDY    45  17  32 NE10      30.34S
RATON          FAIR      50  19  29 N10       30.34R
CLAYTON        NOT AVBL

$$
NMZ532>537-170000-
EASTCENTRAL PLAINS

CITY           SKY/WX    TMP DP  RH WIND       PRES   REMARKS
SANTA ROSA     LGT RAIN  49  22  33 NE8       30.31R
TUCUMCARI      CLOUDY    58  22  24 E9        30.27R
CANNON AFB     CLOUDY    47  31  52 NE12      30.33R
CLOVIS AIRPORT RAIN      46  36  68 E12       30.32R

$$
NMZ028-029-538-170000-
SOUTHEAST PLAINS

CITY           SKY/WX    TMP DP  RH WIND       PRES   REMARKS
ROSWELL        CLOUDY    50  30  46 NE13      30.30S
ARTESIA        CLOUDY    50  27  40 VRB6      30.31S
CARLSBAD       CLOUDY    48  31  51 NE13      30.29S
HOBBS          CLOUDY    43  41  93 NE9       30.31R FOG


$$